Washington, PA

10:15 PM EDT on October 13, 2019 (GMT -0400)
Washington County

Weather History for KAFJ - August, 2019

Change the Weather History Date:

Wednesday, August 21, 2019

  Actual Average Record
Temperature  
Mean Temperature 74 °F -  
Max Temperature 80 °F 78 °F 87 °F (2002)
Min Temperature 66 °F 58 °F 46 °F (2012)
Cooling Degree Days 10    
Growing Degree Days 24 (Base 50)    
Moisture  
Dew Point 68 °F    
Average Humidity 85    
Maximum Humidity 100    
Minimum Humidity 66    
Precipitation  
Precipitation 0.12 in - - ()
Sea Level Pressure  
Sea Level Pressure 29.99 in    
Wind  
Wind Speed 5 mph ()    
Max Wind Speed 13 mph    
Max Gust Speed 16 mph    
Visibility 9.9 miles    
Events Thunderstorm    
Averages and records for this station are not official NWS values.
T = Trace of Precipitation, MM = Missing Value Source: Averaged Metar Reports

Daily Weather History Graph

Daily Weather History Graph

Search for Another Location

Airport or City:

Astronomy

Aug. 21, 2019 Rise Set
Actual Time 6:38 AM EDT 8:09 PM EDT
Civil Twilight 6:09 AM EDT 8:38 PM EDT
Nautical Twilight 5:34 AM EDT 9:12 PM EDT
Astronomical Twilight 4:58 AM EDT 9:49 PM EDT
Moon 11:26 PM EDT (8/21) 12:12 PM EDT (8/21)
Length of Visible Light 14h 28m
Length of Day
13h 31m
Waning Gibbous, 69% of the Moon is Illuminated
Aug 21
Waning Gibbous
Aug 23
Last Quarter
Aug 30
New
Sep 5
First Quarter
Sep 14
Full

Hourly Weather History & Observations

Time (EDT) Temp. Heat Index Dew Point Humidity Pressure Visibility Wind Dir Wind Speed Gust Speed Precip Events Conditions
12:26 AM 69.8 °F - 69.8 °F 100% 30.06 in 10.0 mi SE 3.5 mph - 0.11 in   Mostly Cloudy
12:56 AM 70.0 °F - 69.1 °F 97% 30.04 in 10.0 mi SSE 6.9 mph - 0.12 in Thunderstorm Mostly Cloudy
1:04 AM 69.8 °F - 68.0 °F 94% 30.06 in 10.0 mi SSE 8.1 mph - N/A   Mostly Cloudy
1:56 AM 70.0 °F - 68.0 °F 93% 30.01 in 10.0 mi Calm Calm - N/A   Mostly Cloudy
2:56 AM 69.1 °F - 68.0 °F 96% 29.98 in 10.0 mi South 4.6 mph - N/A   Clear
3:56 AM 70.0 °F - 68.0 °F 93% 29.97 in 10.0 mi SW 4.6 mph - N/A   Mostly Cloudy
4:56 AM 70.0 °F - 68.0 °F 93% 29.96 in 10.0 mi SSW 5.8 mph - N/A   Scattered Clouds
5:56 AM 71.1 °F - 68.0 °F 90% 29.97 in 10.0 mi SW 4.6 mph - N/A   Clear
6:38 AM 69.8 °F - 68.0 °F 94% 30.00 in 10.0 mi SSW 4.6 mph - N/A   Mostly Cloudy
6:47 AM 69.8 °F - 68.0 °F 94% 30.00 in 10.0 mi SSW 5.8 mph - N/A   Scattered Clouds
6:56 AM 69.1 °F - 68.0 °F 96% 29.98 in 10.0 mi SSW 5.8 mph - N/A   Partly Cloudy
7:44 AM 71.6 °F - 69.8 °F 94% 30.01 in 9.0 mi SSW 5.8 mph - N/A   Partly Cloudy
7:56 AM 71.1 °F - 68.0 °F 90% 29.99 in 10.0 mi SSW 9.2 mph - N/A   Scattered Clouds
8:23 AM 71.6 °F - 68.0 °F 88% 30.02 in 9.0 mi SSW 4.6 mph - N/A   Overcast
8:49 AM 71.6 °F - 68.0 °F 88% 30.02 in 10.0 mi SSW 4.6 mph - N/A   Scattered Clouds
8:56 AM 72.0 °F - 69.1 °F 91% 29.99 in 10.0 mi SSW 5.8 mph - N/A   Partly Cloudy
9:56 AM 75.0 °F - 69.1 °F 82% 29.99 in 10.0 mi Variable 4.6 mph - N/A   Scattered Clouds
10:42 AM 75.2 °F - 69.8 °F 83% 30.02 in 10.0 mi SW 5.8 mph - N/A   Mostly Cloudy
10:56 AM 78.1 °F - 70.0 °F 76% 29.99 in 10.0 mi SSW 8.1 mph - N/A   Overcast
11:56 AM 77.0 °F - 68.0 °F 74% 30.00 in 10.0 mi WSW 6.9 mph - N/A   Overcast
12:40 PM 78.8 °F - 69.8 °F 74% 30.02 in 10.0 mi SW 6.9 mph - N/A   Mostly Cloudy
12:56 PM 79.0 °F - 69.1 °F 72% 29.98 in 10.0 mi SSW 10.4 mph - N/A   Mostly Cloudy
1:56 PM 80.1 °F 82.9 °F 69.1 °F 69% 29.98 in 10.0 mi West 9.2 mph 16.1 mph N/A   Mostly Cloudy
2:56 PM 80.1 °F 82.7 °F 68.0 °F 67% 29.98 in 10.0 mi West 12.7 mph - N/A   Overcast
3:56 PM 79.0 °F - 66.9 °F 66% 29.97 in 10.0 mi West 11.5 mph - N/A   Overcast
4:56 PM 80.1 °F 82.7 °F 68.0 °F 67% 29.96 in 10.0 mi West 12.7 mph - N/A   Mostly Cloudy
5:56 PM 80.1 °F 82.7 °F 68.0 °F 67% 29.96 in 10.0 mi West 10.4 mph - N/A   Partly Cloudy
6:56 PM 79.0 °F - 68.0 °F 69% 29.95 in 10.0 mi West 8.1 mph - N/A   Mostly Cloudy
7:56 PM 77.0 °F - 68.0 °F 74% 29.95 in 10.0 mi West 4.6 mph - N/A   Partly Cloudy
8:56 PM 73.9 °F - 69.1 °F 85% 29.97 in 10.0 mi Calm Calm - N/A   Clear
9:56 PM 71.1 °F - 68.0 °F 90% 29.98 in 10.0 mi Calm Calm - N/A   Clear
10:56 PM 70.0 °F - 68.0 °F 93% 29.99 in 10.0 mi Calm Calm - N/A   Clear
11:56 PM 66.9 °F - 66.0 °F 97% 29.99 in 10.0 mi Calm Calm - N/A   Clear